Tracking 20241 objects as of 26-Jan-2020
HD Live streaming from Space Station
objects crossing your sky now

FENGYUN 1C DEB

Track FENGYUN 1C DEB now!
10-day predictions


NORAD ID: 37474
Int'l Code: 1999-025EJU
Perigee: 606.7 km
Apogee: 917.4 km
Inclination: 99.2 °
Period: 99.9 minutes
Semi major axis: 7133 km
RCS: 0.0095 m2 (small)
Launch date: May 10, 1999
Source: People's Republic of China (PRC)
Launch site: Taiyaun Space Center, China (TSC)

Note: This is SATELLITE DEBRIS
aabbcc
Your satellite tracking list
Your tracking list is empty




NASA's NSSDC Master Catalog

Two Line Element Set (TLE):
1 37474U 99025EJU 20026.14809179 +.00000516 +00000-0 +13492-3 0  9993
2 37474 099.2004 014.8710 0217787 070.4786 291.9781 14.41092556312501
Source of the keplerian elements: AFSPC